Location: Oak Ridge
(36.0100°N, 84.2700°W)
Time: 00:43:09
(UTC-05:00)

Envisat - Visible Passes

Search period start: 19 February 2018 00:00
Search period end: 01 March 2018 00:00
Orbit: 764 x 766 km, 98.2° (Epoch: 18 February)

Date Brightness Start Highest point End Pass type
(mag) Time Alt. Az. Time Alt. Az. Time Alt. Az.
19 Feb 2.8 20:06:47 10° SSE 20:11:51 83° ENE 20:16:57 10° N visible
20 Feb 3.5 19:30:42 10° SE 19:35:17 35° ENE 19:39:53 10° N visible
20 Feb 5.1 21:10:23 10° SSW 21:14:20 23° W 21:18:19 10° NW visible
21 Feb 4.5 18:55:53 10° ESE 18:58:55 16° ENE 19:01:57 10° NNE visible
21 Feb 3.6 20:32:30 10° S 20:37:26 54° W 20:42:25 10° NNW visible
22 Feb 2.9 19:55:44 10° SSE 20:00:45 65° ENE 20:05:47 10° N visible
22 Feb 5.9 21:38:12 10° WSW 21:40:09 12° W 21:42:07 10° WNW visible
23 Feb 3.8 19:19:58 10° SE 19:24:14 28° ENE 19:28:31 10° NNE visible
23 Feb 4.8 20:58:46 10° SSW 21:03:08 29° W 21:07:32 10° NW visible
24 Feb 3.2 20:21:16 10° S 20:26:18 70° WSW 20:31:22 10° NNW visible
25 Feb 3.1 19:44:46 10° SSE 19:49:39 50° ENE 19:54:33 10° N visible
25 Feb 5.6 21:25:51 10° SW 21:28:54 16° W 21:31:59 10° NW visible
26 Feb 4.1 19:09:20 10° ESE 19:13:12 22° ENE 19:17:04 10° NNE visible
26 Feb 4.3 20:47:16 10° SSW 20:51:57 37° W 20:56:39 10° NNW visible
27 Feb 2.9 20:10:06 10° SSE 20:15:10 89° W 20:20:16 10° NNW visible
28 Feb 3.4 19:33:54 10° SE 19:38:34 39° ENE 19:43:16 10° N visible
28 Feb 5.3 21:13:56 10° SW 21:17:41 21° W 21:21:26 10° NW visible
